#timestamp,LO_Frequency,Hit,StdDev 
1622995215.5,286047002.1,N
1622995235.4,286047002.5,N
1622995255.2,286047002.5,N
1622995275.1,286047000.0,N
1622995276.0,286047000.0,N
1622995295.8,286047000.4,N
1622995315.6,286047000.3,N
1622995335.5,286047001.0,N
1622995355.3,286047001.1,N
1622995375.1,286047000.9,N
1622995395.9,286047002.7,N
1622995415.7,286046999.8,N
1622995435.6,286047000.9,N
1622995455.4,286047001.1,N
1622995475.2,286047000.4,N
1622995495.1,286046998.4,N
1622995496.0,286046998.4,N
1622995515.8,286047001.1,N
1622995535.7,286046998.4,N
1622995555.5,286046999.1,N
1622995575.3,286046999.5,N
1622995595.2,286046996.5,N
1622995615.0,286046998.4,N
1622995615.9,286046998.4,N
1622995635.7,286046998.1,N
1622995655.6,286046999.6,N
1622995675.4,286046997.0,N
1622995695.3,286046996.8,N
1622995715.1,286046999.2,N
1622995735.8,286046998.8,N
1622995755.7,286046998.8,N
1622995775.5,286046998.4,N
1622995795.4,286047000.1,N
1622995815.2,286047000.7,N
1622995835.0,286046998.8,N
1622995835.9,286046998.8,N
1622995855.8,286046999.5,N
1622995875.6,286046998.2,N
1622995895.4,286047002.7,N
1622995915.3,286046998.1,N
1622995935.1,286046998.6,N
1622995955.9,286046998.4,N
1622995975.7,286046998.2,N
1622995995.5,286046998.6,N
1622996015.4,286046998.1,N
1622996035.2,286046999.6,N
1622996055.0,286046999.1,N
1622996056.0,286046999.1,N
1622996075.8,286046998.5,N
1622996095.6,286047002.5,N
1622996115.5,286047000.2,N
1622996135.3,286047000.3,N
1622996155.1,286047000.3,N
1622996175.9,286047001.1,N
1622996195.7,286047001.2,N
1622996215.6,286047004.1,N
1622996235.4,286047003.9,N
1622996255.2,286047003.5,N
1622996275.1,286047001.4,N
1622996276.0,286047001.4,N
1622996295.8,286047001.8,N
1622996315.6,286047001.8,N
1622996335.5,286047002.3,N
1622996355.3,286047001.9,N
1622996375.2,286047000.3,N
1622996395.9,286047000.6,N
1622996415.7,286047002.4,N
1622996435.6,286047000.1,N
1622996455.4,286047000.8,N
1622996475.3,286047002.5,N
1622996495.1,286047000.9,N
1622996496.0,286047000.9,N
1622996515.8,286047000.7,N
1622996535.7,286047000.4,N
1622996555.5,286047001.0,N
1622996575.3,286047003.2,N
1622996595.2,286047004.1,Y
1622996615.0,286046999.7,P
1622996615.9,286046999.7,N
1622996635.8,286047000.9,N
1622996655.6,286047001.2,N
1622996675.4,286046998.8,N
1622996695.3,286046999.3,N
1622996715.1,286046999.3,N
1622996735.9,286046999.2,N
1622996755.7,286046996.6,Y
1622996775.5,286046999.6,P
1622996795.4,286046999.3,P
1622996815.2,286046998.7,P
1622996835.1,286046999.4,N
1622996836.0,286046999.4,N
1622996855.8,286046996.8,Y
1622996875.6,286046998.6,P
1622996895.5,286046999.6,N
1622996915.3,286046999.3,N
1622996935.2,286046998.6,Y
1622996955.9,286046999.9,P
1622996975.7,286047000.4,N
1622996995.6,286046998.2,P
1622997015.4,286047001.0,N
1622997035.3,286047000.9,N
1622997055.1,286046998.6,N
1622997056.0,286046998.6,N
1622997075.8,286046998.3,N
1622997095.7,286046998.1,N
1622997115.5,286047003.7,Y
1622997135.3,286047004.9,P
1622997155.2,286047004.5,N
1622997175.0,286047004.0,N
1622997175.9,286047004.0,N
1622997195.8,286047002.3,N
1622997215.6,286047000.0,N
1622997235.4,286047000.8,N
1622997255.3,286047001.7,N
1622997275.1,286047002.4,N
1622997295.9,286047000.5,N
1622997315.7,286047001.2,N
1622997335.5,286047000.0,N
1622997355.4,286046999.9,N
1622997375.2,286046999.9,N
1622997395.0,286047002.6,N
1622997395.9,286047002.6,N
1622997415.8,286047000.2,N
1622997435.6,286047002.2,N
1622997455.5,286047004.4,N
1622997475.3,286047001.6,N
1622997495.1,286047001.8,N
1622997515.9,286047003.7,N
1622997535.7,286047003.5,N
1622997555.5,286047005.7,Y
1622997575.4,286047002.0,P
1622997595.2,286046999.8,P
1622997615.1,286047000.4,N
1622997616.0,286047000.4,N
1622997635.8,286046998.7,N
1622997655.6,286046998.5,N
1622997675.5,286046998.1,N
1622997695.3,286046998.4,N
1622997715.1,286046998.3,N
1622997735.9,286046998.5,N
1622997755.7,286046998.7,N
1622997775.6,286046998.7,N
1622997795.4,286047002.5,N
1622997815.2,286047003.7,N
1622997835.1,286047005.8,Y
1622997836.0,286047005.8,P
1622997855.8,286047003.1,N
1622997875.7,286047003.7,N
1622997895.5,286047004.3,N
1622997915.3,286047002.1,N
1622997935.2,286047002.8,N
1622997955.0,286047000.0,N
1622997955.9,286047000.0,N
1622997975.7,286046999.8,N
1622997995.6,286047002.6,N
1622998015.4,286046999.8,N
1622998035.3,286047000.1,N
1622998055.1,286047001.0,N
1622998056.0,286047001.0,N
1622998075.8,286047002.3,N
1622998095.7,286047002.6,N
1622998115.5,286047002.1,N
1622998135.3,286047006.0,Y
1622998155.2,286047003.9,P
1622998175.0,286047004.2,P
1622998175.9,286047004.2,P
1622998195.8,286047005.1,Y
1622998215.6,286046999.5,P
1622998235.4,286046997.8,N
1622998255.3,286046997.8,N
1622998275.1,286046995.2,N
1622998295.9,286046995.1,N
1622998315.7,286046993.4,N
1622998335.5,286046996.3,N
1622998355.4,286046995.5,N
1622998375.2,286046996.6,N
1622998395.0,286046997.7,N
1622998395.9,286046997.7,N
1622998415.8,286046995.2,N
1622998435.6,286046999.1,N
1622998455.5,286046995.9,N
1622998475.3,286046997.9,N
1622998495.1,286046993.5,N
1622998515.9,286046994.7,N
1622998535.7,286046994.7,N
1622998555.6,286046994.5,N
1622998575.4,286046994.0,N
1622998595.2,286046991.7,Y
1622998615.1,286046996.8,P
1622998616.0,286046996.8,P
1622998635.8,286046999.5,P
1622998655.6,286046997.0,N
1622998675.5,286046997.1,N
1622998695.3,286046997.3,N
1622998715.2,286046997.1,Y
1622998735.9,286047000.6,P
1622998755.7,286047000.2,N
1622998775.6,286047001.5,N
1622998795.4,286047001.9,N
